Sheldon, IA

11:55 PM CDT on October 16, 2017 (GMT -0500)
Sheldon Municipal

Weather History for KSHL - November, 2014

Change the Weather History Date:

Sunday, November 30, 2014

  Actual Average Record
Temperature  
Mean Temperature 14 °F -  
Max Temperature 23 °F 35 °F 56 °F (1980)
Min Temperature 3 °F 18 °F -12 °F (1955)
Degree Days  
Heating Degree Days 51    
Moisture  
Dew Point 1 °F    
Average Humidity 64    
Maximum Humidity 80    
Minimum Humidity 49    
Precipitation  
Precipitation 0.00 in - - ()
Sea Level Pressure  
Sea Level Pressure 30.16 in    
Wind  
Wind Speed 20 mph (NNW)    
Max Wind Speed 26 mph    
Max Gust Speed 34 mph    
Visibility 10 miles    
Events      
Averages and records for this station are not official NWS values.
T = Trace of Precipitation, MM = Missing Value Source: NWS Daily Summary

Daily Weather History Graph

Daily Weather History Graph

Search for Another Location

Airport or City:

Trip Planner

Search our weather history database for the weather conditions in past years. The results will help you decide how hot, cold, wet, or windy it might be!

Date:

Astronomy

Nov. 30, 2014 Rise Set
Actual Time 7:34 AM CST 4:49 PM CST
Civil Twilight 7:02 AM CST 5:21 PM CST
Nautical Twilight 6:27 AM CST 5:56 PM CST
Astronomical Twilight 5:52 AM CST 6:30 PM CST
Moon 1:29 PM CST (11/30) 12:55 AM CST (11/30)
Length of Visible Light 10h 18m
Length of Day
9h 14m
Waxing Gibbous, 65% of the Moon is Illuminated
Nov 30
Waxing Gibbous
Dec 6
Full
Dec 14
Last Quarter
Dec 21
New
Dec 28
First Quarter

Hourly Weather History & Observations

Time (CST) Temp. Windchill Dew Point Humidity Pressure Visibility Wind Dir Wind Speed Gust Speed Precip Events Conditions
12:15 AM 23.0 °F 7.6 °F 17.6 °F 80% 29.73 in 10.0 mi NNW 21.9 mph 29.9 mph N/A   Overcast
12:35 AM 21.2 °F 3.9 °F 15.8 °F 80% 29.75 in 10.0 mi NNW 26.5 mph - N/A   Overcast
12:55 AM 17.6 °F -0.6 °F 12.2 °F 79% 29.76 in 10.0 mi NNW 25.3 mph 34.5 mph N/A   Overcast
1:15 AM 17.6 °F -0.3 °F 10.4 °F 73% 29.79 in 10.0 mi NNW 24.2 mph 31.1 mph N/A   Scattered Clouds
1:35 AM 15.8 °F -3.1 °F 8.6 °F 73% 29.79 in 10.0 mi NNW 25.3 mph 31.1 mph N/A   Mostly Cloudy
1:55 AM 15.8 °F -1.9 °F 8.6 °F 73% 29.80 in 10.0 mi NNW 21.9 mph 31.1 mph N/A   Mostly Cloudy
2:15 AM 14.0 °F -4.7 °F 8.6 °F 79% 29.80 in 10.0 mi NNW 23.0 mph 29.9 mph N/A   Overcast
2:35 AM 14.0 °F -4.3 °F 8.6 °F 79% 29.81 in 10.0 mi NNW 21.9 mph - N/A   Overcast
2:55 AM 14.0 °F -4.7 °F 6.8 °F 73% 29.82 in 10.0 mi NNW 23.0 mph - N/A   Overcast
3:15 AM 12.2 °F -6.3 °F 6.8 °F 79% 29.83 in 10.0 mi NNW 20.7 mph - N/A   Overcast
3:35 AM 12.2 °F -6.7 °F 5.0 °F 73% 29.85 in 10.0 mi NNW 21.9 mph 28.8 mph N/A   Mostly Cloudy
3:55 AM 12.2 °F -4.8 °F 5.0 °F 73% 29.86 in 10.0 mi NNW 17.3 mph 26.5 mph N/A   Overcast
4:15 AM 12.2 °F -5.8 °F 5.0 °F 73% 29.87 in 10.0 mi NNW 19.6 mph - N/A   Overcast
4:35 AM 10.4 °F -7.2 °F 3.2 °F 73% 29.88 in 10.0 mi NNW 17.3 mph 24.2 mph N/A   Overcast
4:55 AM 10.4 °F -7.7 °F 1.4 °F 67% 29.88 in 10.0 mi North 18.4 mph 26.5 mph N/A   Mostly Cloudy
5:15 AM 10.4 °F -7.2 °F 1.4 °F 67% 29.89 in 10.0 mi NNW 17.3 mph - N/A   Mostly Cloudy
5:35 AM 10.4 °F -7.2 °F 1.4 °F 67% 29.89 in 10.0 mi North 17.3 mph 24.2 mph N/A   Overcast
5:55 AM 8.6 °F -10.5 °F 1.4 °F 73% 29.91 in 10.0 mi NNW 19.6 mph - N/A   Overcast
6:15 AM 8.6 °F -11.0 °F -0.4 °F 67% 29.94 in 10.0 mi NNW 20.7 mph 26.5 mph N/A   Overcast
6:35 AM 8.6 °F -9.5 °F -2.2 °F 62% 29.95 in 10.0 mi NNW 17.3 mph 26.5 mph N/A   Mostly Cloudy
6:55 AM 8.6 °F -10.0 °F -0.4 °F 67% 29.98 in 10.0 mi NNW 18.4 mph - N/A   Partly Cloudy
7:15 AM 6.8 °F -12.9 °F -2.2 °F 67% 29.99 in 10.0 mi NNW 19.6 mph 25.3 mph N/A   Scattered Clouds
7:35 AM 6.8 °F -12.9 °F -2.2 °F 67% 30.02 in 10.0 mi NNW 19.6 mph - N/A   Partly Cloudy
7:55 AM 6.8 °F -12.9 °F -2.2 °F 67% 30.03 in 10.0 mi NNW 19.6 mph 25.3 mph N/A   Clear
8:15 AM 6.8 °F -12.4 °F -2.2 °F 67% 30.06 in 10.0 mi NNW 18.4 mph 25.3 mph N/A   Clear
8:35 AM 6.8 °F -13.8 °F -2.2 °F 67% 30.08 in 10.0 mi NNW 21.9 mph 28.8 mph N/A   Clear
8:55 AM 8.6 °F -11.4 °F -2.2 °F 62% 30.09 in 10.0 mi NNW 21.9 mph 31.1 mph N/A   Scattered Clouds
9:15 AM 8.6 °F -12.3 °F -2.2 °F 62% 30.11 in 10.0 mi NNW 24.2 mph - N/A   Overcast
9:35 AM 8.6 °F -11.9 °F -2.2 °F 62% 30.13 in 10.0 mi NNW 23.0 mph 29.9 mph N/A   Overcast
9:55 AM 10.4 °F -8.6 °F -2.2 °F 57% 30.14 in 10.0 mi NNW 20.7 mph 31.1 mph N/A   Mostly Cloudy
10:15 AM 10.4 °F -9.1 °F -2.2 °F 57% 30.15 in 10.0 mi NNW 21.9 mph 31.1 mph N/A   Clear
10:35 AM 12.2 °F -7.1 °F -0.4 °F 57% 30.17 in 10.0 mi North 23.0 mph 29.9 mph N/A   Clear
10:55 AM 12.2 °F -6.3 °F -0.4 °F 57% 30.17 in 10.0 mi NNW 20.7 mph - N/A   Clear
11:15 AM 12.2 °F -6.3 °F -0.4 °F 57% 30.19 in 10.0 mi NNW 20.7 mph 28.8 mph N/A   Clear
11:35 AM 12.2 °F -5.8 °F -0.4 °F 57% 30.19 in 10.0 mi NNW 19.6 mph 26.5 mph N/A   Clear
11:55 AM 14.0 °F -3.0 °F 1.4 °F 57% 30.19 in 10.0 mi NNW 18.4 mph 24.2 mph N/A   Clear
12:15 PM 14.0 °F -3.9 °F -0.4 °F 53% 30.18 in 10.0 mi North 20.7 mph 29.9 mph N/A   Clear
12:35 PM 14.0 °F -3.4 °F -0.4 °F 53% 30.18 in 10.0 mi NNW 19.6 mph 26.5 mph N/A   Clear
12:55 PM 14.0 °F -3.9 °F -0.4 °F 53% 30.20 in 10.0 mi NNW 20.7 mph - N/A   Clear
1:15 PM 14.0 °F -2.5 °F -0.4 °F 53% 30.20 in 10.0 mi NNW 17.3 mph 24.2 mph N/A   Clear
1:35 PM 15.8 °F -0.6 °F -0.4 °F 49% 30.20 in 10.0 mi NNW 18.4 mph - N/A   Clear
1:55 PM 15.8 °F -1.5 °F -0.4 °F 49% 30.21 in 10.0 mi NNW 20.7 mph 28.8 mph N/A   Clear
2:15 PM 15.8 °F -0.2 °F 1.4 °F 53% 30.22 in 10.0 mi NNW 17.3 mph 27.6 mph N/A   Clear
2:35 PM 15.8 °F -1.1 °F 1.4 °F 53% 30.22 in 10.0 mi NNW 19.6 mph 25.3 mph N/A   Clear
2:55 PM 15.8 °F -1.5 °F -0.4 °F 49% 30.23 in 10.0 mi NNW 20.7 mph - N/A   Clear
3:15 PM 15.8 °F -1.5 °F -0.4 °F 49% 30.24 in 10.0 mi NNW 20.7 mph - N/A   Clear
3:35 PM 15.8 °F -1.5 °F -0.4 °F 49% 30.25 in 10.0 mi NNW 20.7 mph - N/A   Clear
3:55 PM 14.0 °F -3.4 °F -0.4 °F 53% 30.27 in 10.0 mi NNW 19.6 mph 26.5 mph N/A   Clear
4:15 PM 14.0 °F -4.7 °F -0.4 °F 53% 30.28 in 10.0 mi NNW 23.0 mph - N/A   Clear
4:35 PM 12.2 °F -4.8 °F -0.4 °F 57% 30.31 in 10.0 mi NNW 17.3 mph 24.2 mph N/A   Clear
4:55 PM 12.2 °F -4.3 °F -0.4 °F 57% 30.32 in 10.0 mi NNW 16.1 mph 23.0 mph N/A   Clear
5:15 PM 12.2 °F -4.8 °F -0.4 °F 57% 30.34 in 10.0 mi NNW 17.3 mph - N/A   Clear
5:35 PM 10.4 °F -6.0 °F -0.4 °F 62% 30.35 in 10.0 mi NNW 15.0 mph 21.9 mph N/A   Clear
5:55 PM 10.4 °F -6.0 °F -0.4 °F 62% 30.36 in 10.0 mi NNW 15.0 mph - N/A   Clear
6:15 PM 10.4 °F -4.1 °F -0.4 °F 62% 30.38 in 10.0 mi NNW 11.5 mph - N/A   Clear
6:35 PM 10.4 °F -4.8 °F -0.4 °F 62% 30.39 in 10.0 mi NNW 12.7 mph - N/A   Clear
6:55 PM 10.4 °F -4.8 °F -0.4 °F 62% 30.40 in 10.0 mi NNW 12.7 mph - N/A   Clear
7:15 PM 8.6 °F -7.0 °F -0.4 °F 67% 30.41 in 10.0 mi NNW 12.7 mph - N/A   Clear
7:35 PM 8.6 °F -5.5 °F -0.4 °F 67% 30.43 in 10.0 mi NW 10.4 mph 17.3 mph N/A   Clear
7:55 PM 8.6 °F -5.5 °F -0.4 °F 67% 30.44 in 10.0 mi NNW 10.4 mph - N/A   Clear
8:15 PM 8.6 °F -2.6 °F -0.4 °F 67% 30.46 in 10.0 mi NNW 6.9 mph 12.7 mph N/A   Clear
8:35 PM 8.6 °F -5.5 °F -0.4 °F 67% 30.47 in 10.0 mi NNW 10.4 mph - N/A   Clear
8:55 PM 8.6 °F -5.5 °F -0.4 °F 67% 30.47 in 10.0 mi NNW 10.4 mph - N/A   Clear
9:15 PM 8.6 °F -5.5 °F -0.4 °F 67% 30.48 in 10.0 mi NNW 10.4 mph 17.3 mph N/A   Clear
9:35 PM 8.6 °F -7.0 °F -0.4 °F 67% 30.49 in 10.0 mi NW 12.7 mph - N/A   Clear
9:55 PM 8.6 °F -6.3 °F -2.2 °F 62% 30.50 in 10.0 mi NNW 11.5 mph - N/A   Clear
10:15 PM 6.8 °F -4.8 °F -0.4 °F 72% 30.51 in - NW 6.9 mph - N/A   Clear
10:35 PM 6.8 °F -3.5 °F -0.4 °F 72% 30.52 in 10.0 mi NW 5.8 mph - N/A   Clear
10:55 PM 5.0 °F -5.6 °F -2.2 °F 72% 30.52 in 10.0 mi NW 5.8 mph - N/A   Clear
11:15 PM 5.0 °F - -2.2 °F 72% 30.53 in 10.0 mi Calm Calm - N/A   Clear
11:35 PM 5.0 °F - -2.2 °F 72% 30.53 in 10.0 mi Calm Calm - N/A   Clear
11:55 PM 3.2 °F -4.2 °F -4.0 °F 72% 30.54 in 10.0 mi WNW 3.5 mph - N/A   Clear